TIME,DELAY(SENSOR),PRES,T(CTD),SAL,OXYGEN,RAWTEMP,T(OPTODE),TCPHASE,FLUOR,BETA(BETA700),BETA(BETA412),BETA(BETA440),CDOM,C(CSC),ED(ED411.90),ED(ED443.80),ED(ED489.40),ED(ED554.70),LU(LU412.20),LU(LU443.80),LU(LU489.40),LU(LU555.00),COMP,TILTX,TILTX(TILTY),CHECK
1376320076,5806,497.0000000000000000,17.3773002624511720,36.4300994873046900,214.9665985107422000,175.9282073974609400,17.3741493225097660,32.0356101989746100,74,1096,56,54,52,10399,2146959049,2147515483,2147271616,2147455926,2147080960,2146948379,2147651510,2147125686,2195,-1,8,63284
1376320191,5804,485.8399963378906000,17.4237003326416000,36.4366989135742200,216.7935943603515600,173.9790954589843800,17.4329490661621100,31.9108600616455080,74,1176,54,55,54,10400,2146960612,2147514816,2147269147,2147458861,2147084598,2146951734,2147652882,2147129033,1184,-1,8,50025
1376320296,5806,475.5100097656250000,17.5189990997314450,36.4553985595703100,217.9259033203125000,170.7996063232422000,17.5288791656494140,31.8072204589843750,74,1081,56,54,52,10400,2146962605,2147512941,2147270674,2147458733,2147082441,2146950765,2147653814,2147121325,85,-1,8,63086
1376320411,5807,464.3299865722656000,17.6511993408203120,36.4785995483398440,219.6517944335937500,166.8088989257812500,17.6493091583251950,31.6616401672363280,74,1094,55,56,52,10398,2146960804,2147516882,2147271616,2147449837,2147083721,2146954066,2147651812,2147126363,2725,-1,8,49016
1376320526,5802,453.3399963378906000,17.7530994415283200,36.4958992004394500,221.1730041503906200,163.5088043212890600,17.7489109039306640,31.5372200012207030,75,1097,55,55,52,10396,2146959360,2147515200,2147269430,2147455387,2147081636,2146952402,2147645696,2147130285,1935,-1,8,59361
1376320643,5804,442.3200073242187500,17.8397998809814450,36.5093002319335940,222.5189971923828000,160.6593017578125000,17.8349304199218750,31.4284992218017580,72,1074,55,56,52,10397,2146958820,2147514934,2147271049,2147452900,2147083035,2146951652,2147648064,2147129645,1015,-1,8,34678
1376320770,5806,430.7000122070312500,17.9375991821289060,36.5233993530273440,224.1808013916015600,157.3309936523437500,17.9354190826416000,31.2984905242919920,74,1070,55,54,53,10397,2146960374,2147514971,2147267181,2147451821,2147079524,2146956242,2147650788,2147128960,381,-1,8,59887
1376320899,5804,418.8900146484375000,17.9916000366210940,36.5309982299804700,224.6103057861328000,155.6145019531250000,17.9872608184814450,31.2533397674560550,72,1074,55,55,53,10397,2146956178,2147514358,2147269851,2147450203,2147083017,2146952621,2147646116,2147126491,3171,-1,8,59598
1376321014,5802,408.1900024414062500,18.0349006652832030,36.5335006713867200,231.6047973632812500,154.2180023193359400,18.0294303894042970,30.8849697113037100,72,1063,55,56,53,10394,2146959314,2147514267,2147269997,2147448429,2147083382,2146950674,2147647003,2147129490,2306,-1,8,18904
1376321129,5804,397.4700012207031000,18.0895996093750000,36.5391006469726560,232.9759979248047000,152.3917999267578000,18.0845909118652340,30.7934894561767580,73,1062,55,55,52,10392,2146960329,2147514797,2147269284,2147450230,2147080941,2146953060,2147651812,2147125321,1553,-1,8,47467
1376321258,5804,385.6900024414062500,18.1555995941162100,36.5448989868164060,232.3410949707031200,150.2501983642578000,18.1492805480957030,30.7958793640136720,72,1075,55,56,52,10392,2146957257,2147515282,2147272365,2147449380,2147078720,2146948379,2147643949,2147125430,836,-1,8,2273
1376321385,5807,374.2099914550781000,18.2269001007080080,36.5516014099121100,233.2212066650390600,147.8751983642578000,18.2210407257080080,30.7213191986084000,72,1072,54,54,52,10393,2146961682,2147513426,2147267328,2147450340,2147074523,2146955730,2147647268,2147126720,35,-1,8,29411
1376321514,5807,363.0100097656250000,18.2959003448486330,36.5565986633300800,233.9492950439453000,145.4882965087890600,18.2931594848632800,30.6543502807617200,72,1069,56,55,52,10394,2146959424,2147513197,2147267117,2147448758,2147071049,2146949339,2147644708,2147129005,2728,-2,8,24736
1376321641,5802,352.5899963378906000,18.3288993835449220,36.5509986877441400,235.8910980224609400,144.4250946044922000,18.3252906799316400,30.5468101501464840,72,1063,55,55,53,10392,2146958601,2147515885,2147265161,2147450084,2147077010,2146955355,2147651538,2147124507,1540,-1,8,12673
1376321780,5808,341.5299987792969000,18.3558998107910160,36.5490989685058600,241.7501983642578000,143.4913940429687500,18.3535099029541000,30.2581901550292970,71,1068,55,55,52,10392,2146959232,2147514523,2147267849,2147449517,2147079241,2146956918,2147647021,2147124918,736,-1,8,5652
1376321921,5805,330.5700073242187500,18.3784008026123050,36.5505981445312500,241.4759979248047000,142.8497924804687500,18.3729000091552730,30.2624092102050780,72,1069,55,56,52,10390,2146959040,2147517430,2147268626,2147451602,2147085376,2146952054,2147645110,2147127899,3483,-1,8,47706
1376322072,5806,319.3699951171875000,18.3969001770019530,36.5489997863769500,241.8522033691406200,142.2339019775390600,18.3915195465087900,30.2367191314697270,71,1084,56,56,52,10384,2146958354,2147516260,2147268169,2147450395,2147078729,2146951524,2147648374,2147126674,2689,-1,8,61465
1376322214,5805,307.5599975585937500,18.4211997985839840,36.5503997802734400,243.2601013183593800,141.4082031250000000,18.4164791107177730,30.1606597900390620,72,1069,55,56,53,10386,2146958482,2147516699,2147266249,2147447241,2147078774,2146951990,2147646902,2147125586,2274,-1,8,60652
1376322328,5806,296.3599853515625000,18.4536991119384770,36.5541992187500000,242.8157958984375000,140.2615966796875000,18.4511394500732420,30.1662807464599600,71,1065,56,56,52,10383,2146959030,2147513444,2147266779,2147448073,2147079003,2146960210,2147647131,2147128292,1255,-1,8,32869
1376322445,5806,284.6400146484375000,18.4710998535156250,36.5559005737304700,242.7908935546875000,139.6929931640625000,18.4683208465576170,30.1597995758056640,71,1055,55,55,52,10381,2146959350,2147515190,2147265801,2147448557,2147080265,2146951561,2147647085,2147129289,295,-1,8,27603
1376322548,5807,274.1499938964844000,18.5076007843017580,36.5555992126464840,242.3016052246093800,138.3983001708984400,18.5074691772460940,30.1654796600341800,71,1059,56,56,52,10379,2146957440,2147513408,2147270336,2147449462,2147080320,2146961700,2147645878,2147126893,3435,-1,8,38718
1376322663,5805,262.6900024414062500,18.5911006927490230,36.5583000183105500,239.3067016601562500,135.8768005371093800,18.5837097167968750,30.2716503143310550,74,1090,55,55,53,10371,2146961627,2147515693,2147267090,2147448054,2147073682,2146957750,2147647936,2147126811,2415,-1,8,63770
1376322787,5806,250.8800048828125000,18.6809997558593750,36.5652999877929700,237.8202056884765600,132.8616943359375000,18.6749000549316400,30.3017597198486330,73,1075,55,56,52,10366,2146960265,2147515017,2147271140,2147449060,2147079524,2146956955,2147652845,2147129115,2141,-2,8,49454
1376322912,5804,241.0599975585937500,18.8125000000000000,36.5694007873535160,234.2416992187500000,128.5209960937500000,18.8062305450439450,30.4148597717285160,74,1073,56,55,52,10369,2146959762,2147512740,2147266240,2147444452,2147076745,2146958061,2147649152,2147125376,1202,-2,8,49251
1376323096,5807,227.9900054931640600,18.9442996978759770,36.5710983276367200,240.4232940673828000,123.5395965576171900,18.9569892883300780,30.0571403503417970,73,1070,56,55,52,10371,2146962779,2147515803,2147266715,2147447972,2147074212,2146960768,2147658697,2147127460,3308,-1,8,6536
1376323235,5805,216.2700042724609400,19.2028999328613280,36.5871009826660160,234.3292999267578000,115.2789993286132800,19.2071495056152340,30.2360191345214840,74,1084,54,55,53,10363,2146959771,2147518089,2147265691,2147445714,2147069860,2146961353,2147657755,2147125750,2823,-2,8,12947
1376323362,5807,205.3500061035156200,19.3969001770019530,36.5933990478515600,236.3908996582031200,108.5958023071289000,19.4096794128417970,30.0506095886230470,74,1079,54,57,52,10363,2146957869,2147517504,2147265270,2147444114,2147077513,2146965568,2147661961,2147129920,1804,-1,8,46906
1376323455,5805,197.6600036621093800,19.5622005462646500,36.5904998779296900,243.4635925292968800,103.6720962524414000,19.5589809417724600,29.6584300994873050,75,1080,56,55,52,10360,2146958884,2147515410,2147269266,2147444032,2147081883,2146970788,2147679442,2147126683,2339,-1,8,21409
1376323510,5805,193.4900054931640600,19.6779003143310550,36.5871009826660160,248.5545043945312500,99.9412765502929700,19.6721591949462900,29.3811798095703120,75,1071,56,55,53,10355,2146960246,2147513042,2147267273,2147445120,2147079469,2146975689,2147686454,2147129152,1938,-2,8,19278
1376323565,5804,189.3899993896484400,19.8848991394042970,36.5920982360839840,251.6405029296875000,93.3843536376953100,19.8711795806884770,29.1610908508300780,75,1068,55,54,53,10349,2146958299,2147513782,2147266011,2147442230,2147084845,2146976841,2147693970,2147130669,1641,-1,9,47153
1376323620,5806,185.4299926757812500,19.9885005950927730,36.5867004394531250,254.5222930908203000,89.5927505493164000,19.9863300323486330,28.9875907897949220,76,1067,55,55,52,10350,2146960246,2147516854,2147267876,2147442770,2147084233,2146990683,2147708278,2147130578,1941,-1,9,65278
1376323675,5806,181.6799926757812500,20.1429996490478500,36.5891990661621100,258.3705139160156000,84.7570037841796900,20.1332702636718750,28.7620506286621100,75,1067,57,56,51,10349,2146959963,2147514038,2147267666,2147440173,2147081270,2146992411,2147716790,2147132480,2225,-1,9,37899
1376323759,5803,177.0599975585937500,20.3152008056640620,36.5932006835937500,261.3297119140625000,79.3912506103515600,20.2964096069335940,28.5700607299804700,75,1070,55,55,52,10351,2146957796,2147517193,2147267739,2147440676,2147083099,2146996461,2147715913,2147132480,2066,-2,8,31003
1376323850,5808,173.9400024414062500,20.4228992462158200,36.5961990356445300,261.7818908691406000,75.6065368652343800,20.4115390777587900,28.5037193298339840,74,1072,56,55,51,10346,2146961408,2147515693,2147266176,2147438400,2147087552,2147000960,2147723446,2147133211,1700,-1,9,54124
1376324001,5802,170.2200012207031200,20.6117992401123050,36.5976982116699200,262.3387145996094000,69.4210586547851600,20.5998401641845700,28.4028606414794920,74,1072,56,55,51,10351,2146962614,2147517037,2147276525,2147436918,2147096987,2147089152,2147933449,2147146395,1582,-1,8,17449
1376324129,5808,165.5000000000000000,20.8229007720947270,36.5950012207031250,265.1065979003906000,62.8303909301757800,20.8006305694580080,28.2068290710449220,74,1072,57,56,53,10343,2146960978,2147517275,2147276918,2147438116,2147107565,2147145133,2148030774,2147154276,922,-1,8,42806
1376324220,5805,161.4400024414062500,21.1252002716064450,36.6029014587402340,258.0968017578125000,52.5410614013671900,21.1144695281982420,28.3679409027099600,75,1067,54,55,52,10351,2146961874,2147518537,2147279378,2147437677,2147115337,2147167405,2148063021,2147155712,1384,-2,8,34149
1376324323,5806,157.9299926757812500,21.4223995208740230,36.6166000366210940,249.9476928710937500,44.1637992858886700,21.3703403472900400,28.6107902526855470,74,1068,57,55,51,10359,2146961316,2147522102,2147282313,2147436562,2147131602,2147253705,2148222235,2147168064,835,-1,8,26235
1376324456,5807,153.8000030517578000,21.7180004119873050,36.6506004333496100,238.9584960937500000,32.9925918579101560,21.7120494842529300,28.9596691131591800,73,1066,55,54,53,10366,2146963154,2147520256,2147275648,2147430729,2147109193,2147120996,2147931309,2147150189,1046,-1,9,19531
1376324583,5800,150.3000030517578000,21.8964004516601560,36.6361999511718750,233.8341979980468800,27.6544799804687500,21.8755493164062500,29.1290798187255860,72,1059,55,55,53,10373,2146958400,2147515574,2147269696,2147432109,2147102948,2147074121,2147831414,2147140233,1308,-1,8,23223
1376324728,5807,145.7799987792968800,22.2061996459960940,36.6640014648437500,228.1824035644531200,17.4526805877685550,22.1884193420410160,29.2676906585693360,73,1065,56,55,52,10376,2146960036,2147517513,2147268900,2147433435,2147106349,2147082834,2147837266,2147142829,1792,-2,9,32913
1376324819,5803,141.6199951171875000,22.4381999969482420,36.6691017150878900,223.2476043701172000,9.5986337661743160,22.4296703338623050,29.4082202911376950,73,1059,55,55,51,10377,2146957860,2147518537,2147272859,2147427977,2147117467,2147125376,2147905618,2147146880,1171,-1,9,25522
1376324910,5804,137.2899932861328000,22.5550003051757800,36.6692008972168000,221.9692993164062500,5.6564660072326660,22.5508804321289060,29.4210205078125000,73,1061,56,54,52,10372,2146958372,2147521792,2147274889,2147425389,2147134162,2147193993,2148026825,2147155291,772,-1,8,9666
1376324991,5805,133.9799957275390600,22.7024002075195300,36.6657981872558600,219.0588989257812500,0.9667574763298035,22.6951999664306640,29.5064296722412100,73,1060,54,55,52,10372,2146961801,2147522048,2147284781,2147427830,2147167789,2147334226,2148248365,2147169536,751,-1,8,37791
1376325142,5803,130.6399993896484400,22.8920993804931640,36.6613006591796900,214.6790008544922000,-5.0220251083374020,22.8796691894531250,29.6524105072021500,73,1058,55,56,52,10367,2146963108,2147527332,2147292690,2147425106,2147211209,2147486345,2148524672,2147187273,1625,-1,8,24610
1376325358,5806,125.8499984741211000,23.1277008056640620,36.6548004150390600,216.7539978027343800,-12.3156795501708980,23.1046199798584000,29.4531898498535160,74,1061,57,55,52,10363,2146970368,2147549878,2147338752,2147426157,2147414180,2148206610,2149759725,2147270308,762,-1,8,57830
1376325449,5808,121.9700012207031200,23.4445991516113280,36.6743011474609400,214.9481048583984400,-22.4544391632080080,23.4178600311279300,29.4159793853759770,74,1063,55,56,52,10359,2146975853,2147556891,2147348013,2147425225,2147500251,2148406857,2150067145,2147294070,465,-1,8,64083
1376325588,5806,118.7300033569336000,23.8143997192382800,36.6450996398925800,210.3000030517578000,-33.6198501586914060,23.7635593414306640,29.5139198303222660,74,1059,54,56,52,10363,2146972406,2147555931,2147351652,2147424091,2147535003,2148479158,2150149485,2147301522,76,-1,8,13531
1376325925,5806,114.4599990844726600,24.1588993072509770,36.6137008666992200,204.1067962646484400,-45.8964004516601560,24.1446094512939450,29.6856708526611330,75,1060,55,54,52,10363,2146981019,2147574610,2147382610,2147419328,2147706404,2148929078,2150881746,2147357705,438,-1,9,46818
1376326082,5803,110.2300033569336000,24.5140991210937500,36.5792999267578100,206.6779937744140600,-56.7920417785644500,24.4836692810058600,29.4089698791503900,75,1061,56,56,52,10357,2146981677,2147581814,2147388004,2147422546,2147850048,2149206098,2151209152,2147385728,3193,-2,9,55127
1376326359,5800,106.1600036621093800,25.0711994171142580,36.5133018493652340,216.9362030029297000,-75.3598785400390600,25.0634403228759770,28.6468505859375000,76,1065,55,57,52,10333,2146994651,2147598299,2147420525,2147419565,2148163355,2149854363,2152158162,2147467684,2873,-3,8,43886
1376326707,5808,102.7399978637695300,25.5268993377685550,36.4738006591796900,203.0296020507812500,-89.4093170166015600,25.5038700103759770,29.1884498596191400,80,1067,55,56,53,10297,2146973613,2147545874,2147317805,2147412982,2147552649,2148096713,2149309961,2147265289,1730,-1,9,18346
1376326947,5808,98.9499969482421900,25.7229003906250000,36.4126014709472660,212.9140930175781200,-96.1359176635742200,25.7152900695800780,28.5882606506347660,80,1060,55,56,51,10293,2146980982,2147553691,2147333604,2147409782,2147690285,2148308873,2149607241,2147294162,1641,-1,9,38819
1376327014,5803,97.1699981689453100,25.8325996398925780,36.3833999633789060,217.2472991943359400,-99.0916595458984400,25.8083000183105470,28.3347396850585940,80,1060,56,56,51,10291,2146978596,2147557284,2147338898,2147413421,2147753362,2148399442,2149716790,2147306121,1301,-2,9,44919
1376327093,5805,95.4899978637695300,25.9881992340087900,36.3615989685058600,221.0879058837890600,-103.5336990356445300,25.9482307434082030,28.0915393829345700,80,1061,55,56,51,10289,2146981156,2147559890,2147340736,2147408539,2147828187,2148517120,2149861851,2147320192,949,-1,8,6345
1376327262,5801,93.3799972534179700,26.1033000946044920,36.3451995849609400,225.8144989013672000,-108.2525024414062500,26.0970401763916000,27.8078098297119140,79,1062,54,56,50,10286,2146991076,2147568420,2147360749,2147409819,2148002422,2148810386,2150255277,2147361709,1123,-1,9,52758
1376327365,5804,91.3199996948242200,26.1728000640869140,36.3404998779296900,228.4486999511718800,-110.3752975463867200,26.1640491485595700,27.6586208343505860,80,1061,55,55,50,10295,2146997842,2147580918,2147376402,2147412352,2148193920,2149138706,2150715739,2147405056,1529,-1,9,31835
1376327456,5807,89.4100036621093800,26.2616004943847660,36.3242988586425800,228.4862976074218800,-112.6703033447265600,26.2365398406982420,27.6286792755126950,80,1060,54,57,50,10296,2147004507,2147589714,2147386240,2147409444,2148331081,2149348690,2150945435,2147433755,1650,-2,9,55029
1376327541,5803,86.8499984741211000,26.3225002288818360,36.3185005187988300,229.8045959472656200,-115.9561004638671900,26.3404006958007800,27.5273799896240230,81,1062,54,56,51,10290,2147017654,2147607414,2147415552,2147410706,2148672804,2149923017,2151678125,2147508516,1342,-2,9,62029
1376327596,5807,84.4599990844726600,26.4123001098632800,36.3028984069824200,230.7998962402343800,-117.9926986694336000,26.4048194885253900,27.4567508697509770,81,1058,54,56,52,10283,2147018788,2147610678,2147418496,2147412928,2148773074,2150019584,2151710043,2147523574,1225,-1,9,50629
1376327651,5806,82.1900024414062500,26.5393009185791000,36.2851982116699200,231.4020996093750000,-122.4914016723632800,26.5472507476806640,27.3742294311523440,78,1062,55,56,51,10285,2147026468,2147620178,2147429202,2147411483,2148911917,2150196864,2151864018,2147545965,996,-2,9,31169
1376327706,5807,80.4800033569336000,26.6413002014160160,36.2630996704101560,232.6589050292968800,-125.3248977661132800,26.6370506286621100,27.2824592590332030,77,1061,54,54,52,10299,2147026944,2147623058,2147423186,2147410916,2148922651,2150149814,2151728219,2147536658,541,-1,8,38642
1376327761,5807,79.4899978637695300,26.6900005340576170,36.2557983398437500,232.8338928222656200,-126.7549972534179700,26.6823997497558600,27.2569103240966800,77,1058,55,56,51,10303,2147027410,2147619986,2147425572,2147411849,2148948534,2150174125,2151708534,2147535332,469,-2,8,7834
1376327869,5804,77.2300033569336000,26.7721004486084000,36.2426986694335940,234.6242065429687500,-129.4573059082031200,26.7681407928466800,27.1435508728027340,76,1059,54,56,50,10301,2147046683,2147644854,2147451328,2147412086,2149388525,2150836306,2152412717,2147615680,2309,-1,8,15406
1376327924,5806,75.2699966430664000,26.7873001098632800,36.2378005981445300,236.3103942871093800,-130.0704956054687500,26.7876091003417970,27.0611095428466800,76,1056,55,55,50,10309,2147059026,2147663387,2147476416,2147413156,2149784740,2151415149,2152980333,2147683163,1944,-2,8,31957
1376327979,5805,73.1500015258789000,26.8477993011474600,36.2322006225585940,238.5034027099609400,-132.0532989501953000,26.8505802154541000,26.9402198791503900,75,1055,55,56,51,10310,2147074368,2147681974,2147500406,2147414016,2150153846,2151916169,2153455917,2147737325,1310,-2,9,25962
1376328034,5802,71.1399993896484400,26.8987007141113280,36.2280006408691400,242.1508026123047000,-133.4096069335937500,26.8936691284179700,26.7653293609619140,75,1062,56,54,50,10306,2147099172,2147711542,2147536804,2147417572,2150765330,2152787136,2154311158,2147837065,925,-1,8,38390
1376328089,5801,69.2399978637695300,26.9078006744384770,36.2267990112304700,248.5236968994140600,-133.8645935058593800,26.9081306457519530,26.4895591735839840,76,1056,53,55,52,10313,2147133787,2147761088,2147582491,2147421458,2151625481,2153993444,2155518875,2147976978,671,-2,9,26423
1376328175,5803,65.6600036621093800,26.9857006072998050,36.2137985229492200,254.6432037353515600,-136.5166015625000000,26.9924392700195300,26.2058601379394530,75,1057,55,56,50,10312,2147196553,2147829878,2147656338,2147427510,2153195693,2156026432,2157329161,2148194834,583,-1,9,42322
1376328230,5807,62.7999992370605500,27.1035995483398440,36.1884002685546900,258.3879089355469000,-139.8491973876953000,27.0984897613525400,26.0154590606689450,75,1057,55,56,50,10295,2147249545,2147888347,2147712512,2147433837,2154534482,2157676516,2158722267,2148367433,875,-1,9,20347
1376328285,5802,60.3400001525878900,27.2122001647949220,36.1758003234863300,266.4993896484375000,-143.1786041259765600,27.2045402526855470,25.6583595275878900,73,1053,54,56,50,10308,2147301302,2147942363,2147761965,2147439789,2155766656,2159088978,2159819291,2148510784,1001,-1,9,431
1376328340,5806,58.2099990844726560,27.3344993591308600,36.1673011779785160,275.8435058593750000,-146.9848937988281200,27.3258991241455080,25.2616291046142580,74,1050,56,56,50,10311,2147365467,2148012617,2147827026,2147444644,2157267629,2160851273,2161249572,2148687734,1035,-1,8,40879
1376328395,5807,56.3800010681152340,27.3966007232666000,36.1635017395019500,283.1744995117187500,-149.0402984619140600,27.3914909362792970,24.9710502624511720,75,1050,55,55,50,10306,2147450514,2148104941,2147922578,2147452233,2159408731,2163435931,2163488813,2148969563,1075,-2,8,48114
1376328452,5804,54.6699981689453100,27.4104995727539060,36.1623992919921900,297.9338073730469000,-149.6701049804687500,27.4115905761718750,24.4501705169677730,75,1054,54,55,51,10309,2147551725,2148209819,2148025965,2147462016,2161862656,2166340251,2165938294,2149286774,702,-1,9,30457
1376328593,5803,51.4399986267089840,27.6158008575439450,36.1395988464355500,333.6181030273437500,-155.6134948730468800,27.6015205383300780,23.2509803771972660,79,1077,55,55,51,10298,2147826889,2148505700,2148308781,2147490422,2168768429,2174540717,2172991881,2150214180,3247,-1,9,54428
1376328627,5809,50.8499984741210940,27.6714000701904300,36.1282997131347660,353.6955871582031000,-156.6071014404297000,27.6333007812500000,22.6610393524169920,77,1054,55,56,50,10297,2147918171,2148603556,2148401481,2147500059,2171051529,2177313590,2175447442,2150542966,2659,-1,9,49540
1376328858,5809,48.6500015258789060,27.8500003814697270,36.1010017395019500,458.0862121582031000,-163.6327056884765600,27.8583202362060550,20.0552101135253900,75,1035,54,55,50,10298,2148808548,2149557046,2149386139,2147604032,2192562944,2203152731,2198042459,2153528685,26,-1,8,4540
1376328927,5807,46.7900009155273440,27.8831005096435550,36.0946006774902340,471.1817016601562500,-164.6551055908203000,27.8910999298095700,19.7708892822265620,75,1030,54,54,50,10300,2148991707,2149702153,2149447853,2147605586,2197201161,2207711698,2201345408,2154078107,3020,-1,9,42524
1376328996,5804,44.8699989318847660,28.0037002563476560,36.0866012573242200,464.9580993652344000,-168.6441955566406200,28.0191192626953120,19.8568000793457030,75,1030,55,55,50,10301,2150170697,2150962660,2150679350,2147733860,2229724022,2248016155,2238679579,2159591049,1924,-2,8,2858
1376329095,5803,42.6199989318847660,28.1212005615234380,36.0703010559082000,484.5161132812500000,-171.6105041503906200,28.1144104003906250,19.4260005950927730,75,1017,54,55,50,10296,2149593600,2150269952,2149970797,2147677613,2211975049,2223014189,2213233517,2156218816,1396,-2,9,58785
1376329152,5806,40.5299987792968750,28.1376991271972660,36.0709991455078100,496.9490051269531000,-172.6047058105468800,28.1463699340820300,19.1703796386718750,72,1010,53,55,50,10296,2148848694,2149392420,2149028123,2147589577,2193933851,2199509577,2190959488,2153208164,1322,-1,9,63666
1376329209,5804,38.4700012207031250,28.2185001373291000,36.0610008239746100,452.3736877441406000,-174.6770019531250000,28.2130203247070300,20.0576305389404300,71,1008,53,55,50,10300,2148546358,2149048210,2148653659,2147550482,2186054774,2189376429,2181488073,2151882642,1245,-2,9,50461
1376329266,5801,36.4900016784668000,28.2311992645263670,36.0575981140136700,421.3965148925781000,-175.4017944335937500,28.2363395690917970,20.7383003234863280,71,1008,54,56,50,10303,2148616731,2149101046,2148692470,2147567707,2186906788,2189599561,2181092205,2151846820,903,-1,8,32209